STARLINK-32873, 62857

Orbit data source: Space-Track

STARLINK-32873, 62857 is a payload satellite owned by SpaceX/Seattle (US) in LEO that was launched on Sat, 01 Feb 2025 UTC via an FALCON 9 launch vehicle from the Air Force Western Test Range (AFWTR). Payload-class satellites include a variety of spacecraft equipped with specific instruments for various scientific and technological missions. These include communications satellites like Starlink; space stations such as the ISS; scientific satellites like the Hubble; Earth observation satellites from companies like Planet Labs, Umbra, and HawkEye 360; GPS; miniature CubeSats for education and research; and military/defense satellites.

Loading next visibility...
Identifier
62857, 2025-022D
Orbit
LEO
Country
Flag of USUS
Related business
Manufacturer
SpaceX/Seattle
Mission
Operational Commercial Communications
Bus & Motor
STARLINK V2M, Unknown motor
Mass
730 kg wet, ~700 kg dry
Launch date (UTC)
2025-02-01 (8 months ago)
Launch vehicle
FALCON 9
Launch site
Air Force Western Test Range (AFWTR)
Object type
Payload
Rocket body
Debris
Shape & HBR
Box + 2 Pan, 14.5 m
Radar Cross Section
33.884 m², Large (>1 m²)

Expand to show TLE details & history
Last TLE update: 1 day ago

TLE from 1 day ago
0 STARLINK-32873
1 62857U 25022D   25261.04452615  .00028404  00000-0  96651-3 0  9990
2 62857  53.1570 211.8028 0000944 103.4582 256.6524 15.30231851 35460
Epoch: 2025-09-18T01:04Z
TLE epoch observation values (Epoch: 2025-09-18T01:04:07.059Z)
Latitude
-0.00001°
Longitude
-161.43839°
Altitude
476.169 km
Speed
7.629 km/s
True Right ascension
14h 07m 12s
True Declination
0° 00' 00"
Sunlit
Object was in daylight at epoch
Visualization orbit readout
Latitude
Unknown
Longitude
Unknown
Altitude
Unknown
Speed
Unknown
Apparent Right ascension
Unknown
Apparent Declination
Unknown
Sunlit
N/A
Visualization observer readout
Local Sidereal Time
21:01:48
Azimuth
Unknown
Elevation
Unknown
Doppler factor
Unknown
Orbital elements
Apogee altitude
476.024 km
Perigee altitude
474.73 km
Semi-major axis
6,853.514 km
Eccentricity
0.00009
Inclination
53.157°
RAAN
211.8028°
Arg. of periapsis
103.4582°
True anomaly
256.64188°
Mean anomaly
256.6524°
Eccentric anomaly
256.64714°
Mean motion
3.82537 °/min
Orbital period
94.11 mins
BSTAR
0.00096651
Loading maneuver chart data...
Computing Atmospheric mass density...
Loading historical data...
Loading historical data...
Loading historical data...
Loading historical data...
Loading historical data...
Loading historical data...
Loading historical data...

Documentation

Showing up to 5 results
|